EST,Max TemperatureF,Mean TemperatureF,Min TemperatureF,Max Dew PointF,MeanDew PointF,Min DewpointF,Max Humidity, Mean Humidity, Min Humidity, Max Sea Level PressureIn, Mean Sea Level PressureIn, Min Sea Level PressureIn, Max VisibilityMiles, Mean VisibilityMiles, Min VisibilityMiles, Max Wind SpeedMPH, Mean Wind SpeedMPH, Max Gust SpeedMPH,PrecipitationIn, CloudCover, Events, WindDirDegrees
2012-12-1,46,41,36,41,33,21,87,75,55,30.62,30.56,30.50,10,10,9,10,8,18,0.03,8,Rain,102
2012-12-2,53,50,48,50,48,42,97,88,80,30.48,30.30,30.11,10,10,8,16,10,26,0.02,6,Rain,174
2012-12-3,57,48,37,48,44,35,94,82,55,30.30,30.14,30.07,10,9,4,13,8,24,0.00,3,,263
2012-12-4,54,45,36,49,44,34,97,90,77,30.35,30.26,30.08,10,10,8,9,4,21,0.00,3,,175
2012-12-5,54,46,37,52,43,21,100,78,51,30.09,29.95,29.89,10,8,2,14,8,25,0.01,5,Rain,252
2012-12-6,39,32,25,25,23,19,88,66,52,30.32,30.26,30.10,10,10,10,12,7,24,0.00,3,,329
2012-12-7,46,36,26,45,36,22,96,82,71,30.32,30.20,30.08,10,10,8,10,3,20,0.02,6,Rain,185
2012-12-8,55,50,46,55,48,45,100,97,93,30.07,29.93,29.83,10,5,1,10,3,22,0.43,8,Rain,230
2012-12-9,48,45,42,46,42,34,100,87,58,30.30,30.12,29.98,10,6,0,10,4,18,0.08,5,Fog-Rain,225
2012-12-10,59,52,46,58,53,43,100,97,86,30.17,29.78,29.53,10,4,0,15,10,33,1.11,8,Fog-Rain-Thunderstorm,197
2012-12-11,53,45,37,54,42,27,100,83,60,30.14,29.80,29.56,10,8,1,9,6,21,0.03,7,Rain,280
2012-12-12,39,34,30,28,26,24,82,69,62,30.43,30.32,30.16,10,10,10,8,4,,0.00,1,,321
2012-12-13,43,36,28,31,27,25,88,72,49,30.45,30.39,30.32,10,10,7,4,1,,0.00,3,,343
2012-12-14,46,37,28,34,29,25,92,70,56,30.30,30.18,30.08,10,10,10,15,4,25,0.00,0,,261
2012-12-15,44,38,32,31,26,22,85,64,51,30.34,30.28,30.17,10,10,10,10,3,17,0.00,2,,28
2012-12-16,41,38,34,39,30,22,93,75,59,30.33,30.20,30.05,10,8,3,17,9,28,0.20,7,Rain,92
2012-12-17,48,46,43,47,45,40,97,93,89,30.01,29.91,29.74,10,6,2,17,14,24,0.24,8,Rain,79
2012-12-18,52,48,43,52,48,41,100,96,92,29.73,29.51,29.43,10,4,1,14,9,21,0.25,7,Rain,191
2012-12-19,44,42,39,41,36,33,93,79,70,29.98,29.67,29.44,10,9,2,16,10,36,0.08,7,Rain,325
2012-12-20,43,40,37,37,34,30,93,79,66,30.18,30.11,29.97,10,10,7,9,5,20,0.01,6,Rain,32
2012-12-21,53,48,42,52,44,31,100,86,65,30.04,29.45,29.18,10,7,0,25,13,41,0.67,8,Fog-Rain,158
2012-12-22,42,36,30,34,26,16,81,63,46,29.66,29.43,29.29,10,10,10,15,9,28,0.00,7,Rain,263
2012-12-23,39,34,30,25,20,16,72,56,41,29.89,29.83,29.68,10,10,10,14,8,26,0.00,2,,264
2012-12-24,39,34,28,27,22,19,79,64,47,30.09,30.03,29.91,10,10,10,7,3,18,0.00,1,,260
2012-12-25,44,40,35,43,37,30,96,90,79,30.19,30.03,29.96,10,9,2,10,3,25,0.13,8,Rain,1
2012-12-26,39,34,30,36,29,25,89,74,62,30.30,30.20,29.92,10,9,4,24,6,33,0.22,6,Rain,57
2012-12-27,52,42,33,52,42,29,100,92,85,29.90,29.42,29.22,8,4,1,33,17,54,0.82,8,Rain-Snow,78
2012-12-28,37,32,28,30,24,23,85,71,57,30.01,29.84,29.57,10,10,7,14,10,26,0.00,4,Snow,296
2012-12-29,42,34,26,39,31,22,96,85,70,30.03,29.61,29.19,10,6,1,22,6,34,1.21,6,Rain-Snow,38
2012-12-30,33,30,25,32,24,14,93,77,56,29.92,29.54,29.26,10,8,1,18,13,37,0.38,5,Snow,311
2012-12-31,35,28,21,27,20,12,78,69,60,30.06,29.96,29.80,10,10,10,13,8,36,0.00,2,,272